Location: Noordwijk
(52.2400°N, 4.4500°E)
Time: 23:42:46
(UTC+00:00)

CAS-4A - Pass Details

Date: 10 December 2022
Orbit: 514 x 531 km, 43.0° (Epoch: 05 February)

Event Time Altitude Azimuth Distance (km) Brightness Sun altitude
Exits shadow 04:41:41 19° 167° (SSE) 1,301 ? -25.9°
Maximum altitude 04:41:42 19° 167° (SSE) 1,301 ? -25.9°
Drops below altitude 10° 04:44:35 10° 121° (ESE) 1,776 ? -25.5°
Sets 04:47:19 0° 104° (ESE) 2,671 ? -25.1°
